Pine Ridge, SD

5:08 AM MST on November 25, 2017 (GMT -0700)
Pine Ridge

Weather History for KIEN - June, 2014

Change the Weather History Date:

Tuesday, June 10, 2014

  Actual Average Record
Temperature  
Mean Temperature 67 °F 64 °F  
Max Temperature 82 °F 78 °F 97 °F (2007)
Min Temperature 51 °F 50 °F 43 °F (2002)
Degree Days  
Heating Degree Days 0 4  
Month to date heating degree days 64 46  
Since 1 June heating degree days 64 46  
Since 1 July heating degree days 7424 7173  
Cooling Degree Days 2 3  
Month to date cooling degree days 2 21  
Year to date cooling degree days 27 38  
Since 1 June cooling degree days 2 21  
Growing Degree Days 17 (Base 50)    
Moisture  
Dew Point 52 °F    
Average Humidity 63    
Maximum Humidity 93    
Minimum Humidity 33    
Precipitation  
Precipitation 0.21 in 0.13 in 0.56 in (2003)
Month to date precipitation 2.46 1.17  
Year to date precipitation 10.06 7.41  
Sea Level Pressure  
Sea Level Pressure 29.78 in    
Wind  
Wind Speed 9 mph (South)    
Max Wind Speed 25 mph    
Max Gust Speed 35 mph    
Visibility 9 miles    
Events Rain , Thunderstorm    
T = Trace of Precipitation, MM = Missing Value Source: NWS Daily Summary

Daily Weather History Graph

Daily Weather History Graph

Search for Another Location

Airport or City:

Trip Planner

Search our weather history database for the weather conditions in past years. The results will help you decide how hot, cold, wet, or windy it might be!

Date:

Astronomy

Jun. 10, 2014 Rise Set
Actual Time 5:10 AM MDT 8:28 PM MDT
Civil Twilight 4:35 AM MDT 9:03 PM MDT
Nautical Twilight 3:50 AM MDT 9:49 PM MDT
Astronomical Twilight 2:54 AM MDT 10:45 PM MDT
Moon 5:52 PM MDT (6/10) 3:21 AM MDT (6/10)
Length of Visible Light 16h 28m
Length of Day
15h 18m
Waxing Gibbous, 92% of the Moon is Illuminated
Jun 10
Waxing Gibbous
Jun 12
Full
Jun 19
Last Quarter
Jun 27
New
Jul 5
First Quarter

Hourly Weather History & Observations

Time (MDT) Temp. Dew Point Humidity Pressure Visibility Wind Dir Wind Speed Gust Speed Precip Events Conditions
12:52 AM 53.1 °F 48.0 °F 83% 29.90 in 10.0 mi South 15.0 mph - N/A   Clear
1:52 AM 53.1 °F 48.0 °F 83% 29.89 in 10.0 mi SSW 15.0 mph - N/A   Clear
2:52 AM 53.1 °F 48.0 °F 83% 29.86 in 10.0 mi SSW 16.1 mph 21.9 mph N/A   Clear
3:52 AM 53.1 °F 48.0 °F 83% 29.85 in 10.0 mi South 18.4 mph 26.5 mph N/A   Clear
4:52 AM 52.0 °F 48.0 °F 86% 29.85 in 10.0 mi South 12.7 mph - N/A   Clear
6:52 AM 55.0 °F 48.0 °F 77% 29.84 in 10.0 mi SW 5.8 mph - N/A   Clear
9:52 AM 69.1 °F 51.1 °F 53% 29.81 in 10.0 mi SW 12.7 mph - N/A   Clear
10:52 AM 73.0 °F 52.0 °F 48% 29.79 in 10.0 mi SSW 8.1 mph - N/A   Clear
11:52 AM 77.0 °F 53.1 °F 43% 29.76 in 10.0 mi South 8.1 mph - N/A   Clear
12:52 PM 79.0 °F 52.0 °F 39% 29.76 in 10.0 mi Variable 6.9 mph - N/A   Clear
3:52 PM 82.0 °F 51.1 °F 34% 29.70 in 10.0 mi Variable 5.8 mph - N/A   Clear
5:52 PM 81.0 °F 48.0 °F 31% 29.66 in 10.0 mi South 12.7 mph - N/A   Clear
6:52 PM 73.9 °F 54.0 °F 50% 29.67 in 10.0 mi SE 5.8 mph - N/A   Clear
7:49 PM 71.6 °F 55.4 °F 57% 29.76 in 10.0 mi West 3.5 mph - N/A Thunderstorm Thunderstorm
7:52 PM 73.0 °F 54.0 °F 51% 29.70 in 10.0 mi West 4.6 mph - N/A Thunderstorm Thunderstorm
8:04 PM 72.0 °F 53.1 °F 51% 29.80 in 7.0 mi WNW 23.0 mph 35.7 mph N/A Thunderstorm Mostly Cloudy
8:12 PM 69.1 °F 48.9 °F 49% 29.79 in 6.0 mi NW 20.7 mph 35.7 mph 0.00 in Rain , Thunderstorm Light Thunderstorms and Rain
8:43 PM 64.0 °F 51.1 °F 63% 29.71 in 10.0 mi NE 12.7 mph - 0.02 in Thunderstorm Mostly Cloudy
8:52 PM 63.0 °F 52.0 °F 67% 29.65 in 10.0 mi ENE 8.1 mph - 0.02 in   Scattered Clouds
9:44 PM 61.0 °F 53.1 °F 75% 29.82 in 10.0 mi North 11.5 mph - 0.02 in Rain , Thunderstorm Light Thunderstorms and Rain
9:52 PM 62.1 °F 52.0 °F 70% 29.76 in 10.0 mi North 18.4 mph 29.9 mph 0.02 in Thunderstorm Thunderstorm
10:09 PM 57.9 °F 55.0 °F 90% 29.82 in 2.0 mi NE 11.5 mph - 0.17 in Rain , Thunderstorm Heavy Thunderstorms and Rain
10:17 PM 57.9 °F 54.0 °F 87% 29.80 in 9.0 mi NE 9.2 mph - 0.17 in Rain , Thunderstorm Light Thunderstorms and Rain
10:31 PM 57.0 °F 54.0 °F 89% 29.79 in 10.0 mi NE 9.2 mph - 0.17 in Thunderstorm Scattered Clouds
10:43 PM 57.0 °F 54.0 °F 89% 29.80 in 10.0 mi East 8.1 mph - 0.17 in   Clear
10:52 PM 57.0 °F 54.0 °F 89% 29.74 in 10.0 mi East 6.9 mph - 0.17 in   Clear
11:52 PM 55.9 °F 54.0 °F 93% 29.74 in 10.0 mi East 4.6 mph - N/A   Clear